KC8TAI Weather Reports


time (UTC)temp
C
wind
direction
speed
KPH
gust
KPH
rain 1hr
cm
rain 24hr
cm
rain mn
cm
humidity
%
barometer
mb
20260509235516 16 232 6.4 11.3 0.00 0.38 0.38 68 1009.5
20260509234516 16 218 6.4 11.3 0.00 0.38 0.38 66 1009.4
20260509233517 17 209 9.7 16.1 0.00 0.38 0.38 65 1009.3
20260509232516 17 217 8.0 12.9 0.00 0.38 0.38 63 1009.3
20260509231517 17 218 8.0 11.3 0.00 0.38 0.38 65 1009.3
20260509230518 17 233 9.7 17.7 0.00 0.38 0.38 64 1009.3
20260509225517 17 232 8.0 12.9 0.00 0.38 0.38 65 1009.5
20260509224537 17 227 9.7 16.1 0.00 0.38 0.38 64 1009.6
20260509223518 17 221 11.3 14.5 0.00 0.38 0.38 64 1009.6
20260509222518 17 226 11.3 16.1 0.00 0.38 0.38 64 1009.6
20260509221518 18 201 11.3 14.5 0.00 0.38 0.38 64 1009.5
20260509220515 18 213 11.3 16.1 0.00 0.38 0.38 63 1009.4
20260509215515 18 216 9.7 14.5 0.00 0.38 0.38 63 1009.2
20260509214536 17 216 9.7 14.5 0.00 0.38 0.38 65 1009.6
20260509213536 18 216 11.3 16.1 0.00 0.38 0.38 64 1009.6
20260509212516 18 216 9.7 16.1 0.00 0.38 0.38 63 1009.3
20260509211519 17 223 11.3 16.1 0.00 0.38 0.38 64 1009.3
20260509210516 18 216 11.3 16.1 0.00 0.38 0.38 64 1009.5
20260509205516 18 222 12.9 19.3 0.00 0.38 0.38 63 1009.4
20260509204536 18 234 11.3 17.7 0.00 0.38 0.38 65 1009.4
20260509203516 18 224 8.0 14.5 0.00 0.38 0.38 64 1009.3
20260509202516 18 242 9.7 14.5 0.00 0.38 0.38 64 1009.3
20260509201517 17 226 6.4 12.9 0.00 0.38 0.38 66 1009.4
20260509200517 17 234 6.4 11.3 0.00 0.38 0.38 67 1009.8
20260509195517 17 251 6.4 16.1 0.00 0.38 0.38 68 1009.9
20260509194517 17 227 9.7 14.5 0.00 0.38 0.38 68 1009.9
20260509193518 16 227 6.4 12.9 0.00 0.38 0.38 69 1009.7
20260509192518 16 224 11.3 20.9 0.00 0.38 0.38 68 1010.0
20260509191518 16 216 9.7 14.5 0.00 0.38 0.38 68 1009.8
20260509190518 16 213 8.0 12.9 0.00 0.38 0.38 68 1009.9
20260509185518 15 231 6.4 9.7 0.00 0.38 0.38 70 1009.8
20260509184515 15 229 8.0 12.9 0.00 0.38 0.38 72 1009.9
20260509183516 15 232 1.6 6.4 0.00 0.38 0.38 76 1010.0
20260509182515 15 246 4.8 11.3 0.00 0.38 0.38 76 1010.2
20260509181522 15 225 3.2 9.7 0.00 0.38 0.38 77 1010.1
20260509180515 15 200 1.6 6.4 0.00 0.38 0.38 77 1010.0
20260509175516 14 189 0.0 4.8 0.00 0.38 0.38 78 1010.0
20260509174516 14 235 1.6 4.8 0.00 0.38 0.38 78 1010.2
20260509173516 13 190 1.6 4.8 0.00 0.38 0.38 80 1010.1
20260509172536 13 217 3.2 4.8 0.00 0.38 0.38 81 1010.4
20260509171516 13 237 0.0 4.8 0.00 0.38 0.38 82 1010.4
20260509170517 13 238 3.2 6.4 0.00 0.38 0.38 82 1010.3
20260509165517 13 216 4.8 9.7 0.00 0.38 0.38 83 1010.2
20260509164538 13 202 1.6 4.8 0.00 0.38 0.38 85 1010.3
20260509163517 12 151 0.0 3.2 0.00 0.38 0.38 87 1010.3
20260509162518 12 179 1.6 6.4 0.00 0.38 0.38 89 1010.4
20260509161528 12 158 0.0 3.2 0.03 0.38 0.38 88 1010.8
20260509160528 12 217 1.6 4.8 0.03 0.38 0.38 89 1010.8
20260509155528 12 206 1.6 4.8 0.03 0.38 0.38 88 1010.8
20260509154529 12 56 1.6 3.2 0.03 0.38 0.38 88 1010.6
20260509153529 12 222 1.6 4.8 0.03 0.38 0.38 88 1010.8
20260509152516 11 213 3.2 8.0 0.00 0.38 0.38 89 1011.1
20260509151516 11 208 1.6 4.8 0.00 0.36 0.36 90 1011.1
20260509150516 11 128 1.6 3.2 0.00 0.36 0.36 91 1011.1
20260509145516 11 123 0.0 1.6 0.00 0.36 0.36 92 1011.1
20260509144516 11 0.0 0.0 0.03 0.36 0.36 91 1011.0
20260509143516 11 0.0 0.0 0.03 0.36 0.36 90 1011.0
20260509142536 11 272 0.0 1.6 0.03 0.36 0.36 90 1011.0
20260509141517 11 0.0 0.0 0.03 0.36 0.36 91 1011.1
20260509140537 11 241 3.2 4.8 0.03 0.36 0.36 90 1011.1
20260509135517 11 226 0.0 3.2 0.03 0.36 0.36 92 1011.0
20260509134517 11 0.0 0.0 0.05 0.36 0.36 93 1010.8
20260509133537 11 136 0.0 1.6 0.08 0.33 0.33 95 1011.0
20260509132517 10 65 0.0 0.0 0.08 0.33 0.33 95 1011.1
20260509131518 10 0.0 0.0 0.10 0.33 0.33 96 1011.1
20260509130517 10 0.0 0.0 0.10 0.33 0.33 96 1011.2
20260509125538 10 0.0 0.0 0.13 0.33 0.33 96 1011.5
20260509124518 10 0.0 0.0 0.10 0.30 0.30 96 1011.6
20260509123518 10 0.0 0.0 0.10 0.28 0.28 96 1011.5
20260509122518 10 0.0 0.0 0.08 0.28 0.28 96 1011.6
20260509121518 10 199 0.0 0.0 0.08 0.25 0.25 96 1011.7
20260509120519 10 0.0 0.0 0.08 0.23 0.23 96 1011.5
20260509115519 10 0.0 0.0 0.08 0.20 0.20 96 1011.6
20260509114519 9 0.0 0.0 0.05 0.18 0.18 96 1011.7
20260509113519 9 224 0.0 3.2 0.05 0.18 0.18 96 1011.5
20260509112519 9 202 0.0 3.2 0.08 0.18 0.18 96 1011.4
20260509111540 9 50 0.0 1.6 0.05 0.15 0.15 96 1011.4
20260509110520 9 38 0.0 1.6 0.05 0.15 0.15 96 1011.4
20260509105520 9 0.0 0.0 0.05 0.13 0.13 96 1011.3
20260509104520 9 0.0 0.0 0.05 0.13 0.13 96 1011.4
20260509103521 9 0.0 0.0 0.03 0.13 0.13 95 1011.4
20260509102520 9 56 0.0 1.6 0.03 0.13 0.13 95 1011.3
20260509101521 9 70 1.6 3.2 0.03 0.10 0.10 95 1011.5
20260509100521 9 47 1.6 3.2 0.03 0.10 0.10 94 1011.6
20260509095521 9 52 1.6 4.8 0.08 0.10 0.10 94 1011.7
20260509094601 9 0.0 0.0 0.08 0.08 0.08 93 1011.8
20260509093521 9 52 0.0 3.2 0.08 0.08 0.08 92 1011.8
20260509092521 10 0.0 0.0 0.08 0.08 0.08 90 1011.9
20260509091542 10 234 0.0 3.2 0.08 0.08 0.08 89 1011.9
20260509090542 11 343 0.0 3.2 0.08 0.08 0.08 83 1011.7
20260509085519 11 231 8.0 14.5 0.03 0.03 0.03 78 1011.9
20260509084556 12 245 9.7 16.1 0.00 0.00 0.00 74 1011.8
20260509083520 12 238 9.7 14.5 0.00 0.00 0.00 72 1011.6
20260509082517 13 226 9.7 16.1 0.00 0.00 0.00 69 1011.3
20260509081538 12 223 11.3 16.1 0.00 0.00 0.00 68 1010.8
20260509080538 11 214 6.4 12.9 0.00 0.00 0.00 73 1010.7
20260509075518 8 59 1.6 8.0 0.00 0.00 0.00 94 1010.8
20260509074518 8 44 3.2 8.0 0.00 0.00 0.00 94 1010.8
20260509073518 8 267 0.0 4.8 0.00 0.00 0.00 94 1010.7
20260509072518 8 53 0.0 1.6 0.00 0.00 0.00 94 1010.6
20260509071518 8 0.0 0.0 0.00 0.00 0.00 93 1010.7
20260509070515 8 0.0 0.0 0.00 0.00 0.00 93 1010.6
20260509065515 8 0.0 0.0 0.00 0.00 0.00 93 1010.6
20260509064515 8 37 0.0 1.6 0.00 0.00 0.00 93 1010.6
20260509063516 8 0.0 0.0 0.00 0.00 0.00 93 1010.7
20260509062536 8 0.0 0.0 0.00 0.00 0.00 93 1010.7
20260509061516 8 47 0.0 3.2 0.00 0.00 0.00 92 1010.8
20260509060516 8 281 0.0 3.2 0.00 0.00 0.00 92 1011.0
20260509055517 8 31 0.0 1.6 0.00 0.00 0.00 91 1011.0
20260509054516 8 0.0 0.0 0.00 0.00 0.00 90 1011.3
20260509053517 9 0.0 0.0 0.00 0.00 0.00 90 1011.4
20260509052537 9 355 0.0 1.6 0.00 0.00 0.00 90 1011.4
20260509051517 9 265 0.0 3.2 0.00 0.00 0.00 90 1011.5
20260509050517 9 301 0.0 1.6 0.00 0.00 0.00 90 1011.7
20260509045517 9 0.0 0.0 0.00 0.00 0.00 89 1011.7
20260509044517 9 0.0 0.0 0.00 0.00 0.00 89 1011.8
20260509043538 10 0.0 0.0 0.00 0.00 0.00 89 1011.8
20260509042518 10 0.0 0.0 0.00 0.00 0.00 88 1011.9
20260509041518 10 0.0 0.0 0.00 0.00 0.00 87 1012.0
20260509040515 10 0.0 0.0 0.00 0.00 0.00 86 1011.9
20260509035515 10 0.0 0.0 0.00 0.00 0.00 86 1011.9
20260509034515 10 0.0 0.0 0.00 0.00 0.00 85 1011.9
20260509033516 10 0.0 0.0 0.00 0.00 0.00 85 1012.0
20260509032516 10 0.0 0.0 0.00 0.00 0.00 85 1012.1
20260509031516 10 0.0 0.0 0.00 0.00 0.00 85 1012.1
20260509030516 10 0.0 0.0 0.00 0.00 0.00 83 1012.1
20260509025516 10 0.0 0.0 0.00 0.00 0.00 82 1012.1
20260509024516 11 0.0 0.0 0.00 0.00 0.00 84 1012.1
20260509023516 11 0.0 0.0 0.00 0.00 0.00 84 1012.2
20260509022517 11 0.0 0.0 0.00 0.00 0.00 81 1012.2
20260509021517 11 0.0 0.0 0.00 0.00 0.00 83 1012.2
20260509020537 11 0.0 0.0 0.00 0.00 0.00 81 1012.3
20260509015517 11 0.0 0.0 0.00 0.00 0.00 78 1012.2
20260509014517 11 0.0 0.0 0.00 0.00 0.00 79 1012.0
20260509013517 11 0.0 0.0 0.00 0.00 0.00 79 1011.9
20260509012538 12 0.0 0.0 0.00 0.00 0.00 77 1011.9
20260509011518 12 0.0 0.0 0.00 0.00 0.00 79 1011.8
20260509010515 12 0.0 0.0 0.00 0.00 0.00 72 1011.9
20260509005515 13 340 0.0 1.6 0.00 0.00 0.00 73 1011.7
20260509004515 13 0.0 0.0 0.00 0.00 0.00 65 1011.8
20260509003516 14 258 1.6 4.8 0.00 0.00 0.00 60 1011.6
20260509002516 15 245 3.2 4.8 0.00 0.00 0.00 57 1011.6
20260509001536 15 211 3.2 6.4 0.00 0.00 0.00 56 1011.6
20260509000516 15 217 1.6 4.8 0.00 0.00 0.00 56 1011.7